DL7HMX-13 Weather Reports


time (UTC)temp
F
wind
direction
speed
knots
gust
knots
rain 1hr
in
rain 24hr
in
rain mn
in
humidity
%
barometer
mb
20260506044029 55 82 0.0 0.9 0.00 0.06 0.02 96 1008.1
20260506043031 54 110 0.0 0.9 0.00 0.06 0.02 98 1008.1
20260506042018 54 111 0.0 0.9 0.00 0.06 0.02 98 1008.2
20260506041023 53 99 0.0 1.7 0.00 0.06 0.02 98 1008.5
20260506040024 53 110 0.0 1.7 0.00 0.06 0.02 97 1008.3
20260506035028 54 0.0 0.0 0.00 0.06 0.02 96 1008.5
20260506034030 54 136 0.0 0.9 0.00 0.06 0.02 96 1008.7
20260506033018 54 121 0.0 1.7 0.00 0.06 0.02 97 1008.7
20260506032020 54 111 0.0 0.9 0.00 0.06 0.02 98 1008.7
20260506031023 55 0.0 0.0 0.00 0.06 0.02 96 1008.3
20260506030026 55 116 0.0 0.9 0.00 0.06 0.02 95 1008.3
20260506025029 56 137 1.7 3.5 0.00 0.06 0.02 95 1008.3
20260506024016 56 143 0.9 2.6 0.00 0.06 0.02 95 1008.3
20260506023020 56 136 0.9 2.6 0.00 0.06 0.02 94 1008.4
20260506022022 56 141 0.9 2.6 0.00 0.06 0.02 95 1008.4
20260506021024 55 0.0 0.0 0.00 0.06 0.02 96 1008.4
20260506020028 55 0.0 0.0 0.00 0.06 0.02 96 1008.5
20260506015030 56 133 0.9 1.7 0.00 0.06 0.02 95 1008.4
20260506014018 56 152 0.9 2.6 0.00 0.06 0.02 94 1008.4
20260506013020 56 174 0.9 2.6 0.00 0.06 0.02 94 1008.5
20260506012024 55 189 1.7 5.2 0.00 0.06 0.02 96 1008.7
20260506011027 55 164 1.7 2.6 0.00 0.06 0.02 97 1008.5
20260506010029 55 145 0.9 1.7 0.00 0.06 0.02 97 1008.3
20260506005017 56 105 0.9 1.7 0.00 0.06 0.02 97 1008.1
20260506004019 56 104 0.0 0.9 0.00 0.06 0.02 95 1008.4
20260506003022 56 139 0.0 1.7 0.01 0.06 0.02 94 1008.6
20260506002025 56 128 0.9 1.7 0.01 0.06 0.02 94 1008.8
20260506001029 57 185 1.7 3.5 0.01 0.06 0.02 93 1008.9
20260506000031 56 184 0.9 2.6 0.01 0.06 0.02 94 1008.9
20260505235018 57 139 0.9 1.7 0.01 0.06 0.02 94 1008.8
20260505234021 57 138 0.9 1.7 0.01 0.06 0.02 94 1008.9
20260505233023 57 155 1.7 3.5 0.00 0.05 0.01 92 1008.9
20260505232027 57 182 1.7 3.5 0.00 0.05 0.01 91 1008.8
20260505231029 57 174 1.7 3.5 0.01 0.05 0.01 91 1008.7
20260505230016 57 226 3.5 7.0 0.01 0.05 0.01 92 1008.7
20260505225021 57 240 4.3 8.7 0.01 0.05 0.01 91 1008.6
20260505224023 58 222 4.3 8.7 0.01 0.05 0.01 91 1008.6
20260505223025 58 228 4.3 9.6 0.01 0.05 0.01 92 1008.5
20260505222028 58 190 1.7 5.2 0.01 0.05 0.01 92 1008.2
20260505221032 58 153 0.9 2.6 0.00 0.04 0.00 92 1008.2
20260505220019 58 0.0 0.0 0.00 0.04 0.04 92 1008.1
20260505215020 57 126 0.9 1.7 0.00 0.04 0.04 92 1007.9
20260505214023 57 118 0.0 0.9 0.00 0.04 0.04 95 1007.9
20260505213023 57 0.0 0.0 0.00 0.04 0.04 95 1007.8
20260505212025 58 142 0.9 2.6 0.00 0.04 0.04 93 1007.6
20260505211028 58 142 1.7 2.6 0.00 0.04 0.04 93 1007.4
20260505210031 57 181 1.7 3.5 0.00 0.04 0.04 94 1007.4
20260505205017 57 178 1.7 2.6 0.00 0.04 0.04 94 1007.3
20260505204018 57 151 0.9 1.7 0.00 0.04 0.04 95 1007.0
20260505203021 57 121 0.9 1.7 0.00 0.04 0.04 93 1006.7
20260505202023 58 114 1.7 1.7 0.00 0.04 0.04 93 1006.5
20260505201027 58 139 2.6 5.2 0.00 0.04 0.04 93 1006.5
20260505200029 58 113 0.0 0.9 0.01 0.05 0.04 92 1006.3
20260505195031 58 0.0 0.0 0.02 0.05 0.04 93 1006.4
20260505194018 58 0.0 0.0 0.04 0.05 0.04 94 1006.4
20260505193021 59 100 0.9 2.6 0.04 0.05 0.04 93 1006.2
20260505192024 59 119 4.3 6.1 0.04 0.05 0.04 88 1006.2
20260505191026 60 162 2.6 5.2 0.04 0.05 0.04 85 1006.4
20260505190029 61 170 2.6 6.1 0.03 0.04 0.03 82 1006.3
20260505185032 61 176 2.6 3.5 0.02 0.03 0.02 78 1006.4
20260505184018 64 186 2.6 6.1 0.00 0.01 0.00 71 1006.2
20260505183020 66 227 2.6 6.1 0.00 0.01 0.00 63 1006.0
20260505182024 67 265 5.2 11.3 0.00 0.01 0.00 58 1005.8
20260505181026 67 272 10.4 19.1 0.00 0.01 0.00 56 1005.4
20260505180024 68 264 9.6 16.5 0.00 0.01 0.00 55 1005.1
20260505175032 69 270 6.1 12.2 0.00 0.01 0.00 55 1004.8
20260505174019 69 280 9.6 20.0 0.00 0.01 0.00 53 1004.6
20260505173021 71 266 9.6 20.0 0.00 0.01 0.00 49 1004.3
20260505172024 75 204 1.7 3.5 0.00 0.01 0.00 42 1003.6
20260505171024 74 141 0.9 1.7 0.00 0.01 0.00 42 1003.4
20260505170027 75 178 0.9 2.6 0.00 0.01 0.00 41 1003.5
20260505165029 75 178 1.7 2.6 0.00 0.01 0.00 41 1003.4
20260505164031 75 152 0.9 2.6 0.00 0.01 0.00 40 1003.4
20260505163018 76 141 0.0 1.7 0.00 0.01 0.00 40 1003.5
20260505162021 77 132 0.0 1.7 0.00 0.01 0.00 38 1003.5
20260505161019 77 168 1.7 2.6 0.00 0.01 0.00 36 1003.6
20260505153020 80 287 1.7 3.5 0.00 0.01 0.00 32 1003.8
20260505152023 80 83 0.9 2.6 0.00 0.01 0.00 31 1003.8
20260505151024 80 305 2.6 7.0 0.00 0.01 0.00 31 1003.9
20260505125016 81 67 0.9 2.6 0.00 0.01 0.00 32 1005.2
20260505124019 82 49 1.7 5.2 0.00 0.01 0.00 32 1005.5
20260505123021 81 71 0.9 2.6 0.00 0.01 0.00 33 1005.6
20260505122024 79 55 1.7 5.2 0.00 0.01 0.00 38 1005.8
20260505121027 80 66 0.9 6.1 0.00 0.01 0.00 38 1006.0
20260505120030 79 91 0.9 2.6 0.00 0.01 0.00 39 1006.1
20260505115018 78 248 1.7 5.2 0.00 0.01 0.00 40 1006.2
20260505114020 77 217 2.6 5.2 0.00 0.01 0.00 43 1006.3
20260505113023 77 172 1.7 5.2 0.00 0.01 0.00 44 1006.5
20260505112026 76 82 0.9 2.6 0.00 0.01 0.00 48 1006.5
20260505111029 75 25 0.9 3.5 0.00 0.01 0.00 48 1006.7
20260505102027 75 74 1.7 5.2 0.00 0.01 0.00 49 1007.1
20260505101031 74 41 1.7 3.5 0.00 0.01 0.00 51 1007.3
20260505100017 73 43 1.7 5.2 0.00 0.01 0.00 53 1007.3
20260505095020 75 81 0.9 3.5 0.00 0.01 0.00 51 1007.5
20260505094022 74 110 0.9 3.5 0.00 0.01 0.00 51 1007.6
20260505093027 75 92 0.9 1.7 0.00 0.01 0.00 52 1007.7
20260505092029 72 71 0.9 2.6 0.00 0.01 0.00 55 1007.8
20260505091031 73 150 0.9 3.5 0.00 0.01 0.00 55 1007.9
20260505090018 72 136 1.7 3.5 0.00 0.01 0.00 56 1008.0
20260505085021 71 54 1.7 3.5 0.00 0.01 0.00 58 1008.1
20260505084024 69 49 1.7 3.5 0.00 0.01 0.00 60 1008.1
20260505083027 69 65 0.9 3.5 0.00 0.01 0.00 58 1008.1
20260505082031 68 72 0.9 3.5 0.00 0.01 0.00 58 1008.2
20260505081017 69 70 0.9 3.5 0.00 0.01 0.00 58 1008.2
20260505080020 68 77 0.9 2.6 0.00 0.01 0.00 60 1008.4
20260505075023 67 75 0.9 2.6 0.00 0.01 0.00 61 1008.5
20260505074026 67 69 0.9 3.5 0.00 0.01 0.00 59 1008.5
20260505073030 66 70 0.9 2.6 0.00 0.01 0.00 61 1008.4
20260505072032 66 66 0.9 2.6 0.00 0.01 0.00 63 1008.5
20260505071018 66 2 0.9 2.6 0.00 0.01 0.00 65 1008.7
20260505070022 65 13 0.0 0.9 0.00 0.01 0.00 63 1008.7
20260505065025 64 73 0.0 1.7 0.00 0.01 0.00 70 1008.6
20260505064027 62 87 0.9 1.7 0.00 0.01 0.00 75 1008.6
20260505063030 62 0.0 0.0 0.00 0.01 0.00 76 1008.8
20260505062017 63 0.0 0.0 0.00 0.01 0.00 75 1008.8
20260505061020 62 0.0 0.0 0.00 0.01 0.00 76 1008.9
20260505060023 60 0.0 0.0 0.00 0.01 0.00 81 1008.9
20260505055027 61 0.0 0.0 0.00 0.01 0.00 79 1008.9
20260505054029 59 0.0 0.0 0.00 0.01 0.00 81 1008.9
20260505053017 58 0.0 0.0 0.00 0.01 0.00 84 1008.9
20260505052019 57 104 0.0 1.7 0.00 0.01 0.00 86 1008.9
20260505051021 56 0.0 0.0 0.00 0.01 0.00 87 1009.0